(217908) = 2001 SR142

Discovered at Socorro on 2001-09-16 by LINEAR.

Orbit

Orbit type: Main Belt

Note: WebGL enabled browser required.

epoch2024-03-31.0
epoch JD2460400.5
perihelion date2021-09-02.75362
perihelion JD2459460.25362
argument of perihelion (°)19.02072
ascending node (°)289.36863
inclination (°)3.15174
eccentricity0.2471950
perihelion distance (AU)1.9161440
Tisserand w.r.t. Jupiter3.4
ΔV w.r.t. Earth (km/sec)8.8
semimajor axis (AU)2.5453392
mean anomaly (°)228.20598
mean daily motion (°/day)0.24270870
aphelion distance (AU)3.175
period (years)4.06
P-vector [x]0.62053700
P-vector [y]-0.72640829
P-vector [z]-0.29540623
Q-vector [x]0.78245988
Q-vector [y]0.54864722
Q-vector [z]0.29452127
absolute magnitude17.39
phase slope0.15
uncertainty0
referenceMPEC 2024-E73
observations used218
oppositions12
arc length (days)8260
first opposition used2001
last opposition used2024
residual rms (arc-secs)0.81
perturbers coarse indicatorM-v
perturbers precise indicator003Ek
first observation date used2001-07-24.0
last observation date used2024-03-05.0
computer nameMPCLINUX
JD of orbit computation2456612.715817
perihelion JD uncertainty (days)1.7643E-04
argument of perihelion uncertainty (°)1.6410E-04
ascending node uncertainty (°)1.4799E-04
inclination uncertainty (°)7.2231E-06
eccentricity uncertainty 3.4785E-07
perihelion distance uncertainty (AU)9.1442E-07
Minimum Orbit Intersection Distances (in AU)
for orbit epoch: 2460400.5, reference: E2024-E73
Mercury1.48335
Venus1.19033
Earth0.90153
Mars0.51772
Jupiter2.08815
Saturn5.93679
Uranus15.3484
Neptune26.9938

Observations

220 total observations over interval: 2001 07 24.45098 – 2024 03 05.240859
These data are available for download (format description).

Date (UT) J2000 RA J2000 Dec Magn Location Ref
2001 07 24.45098 00 14 13.03 +05 26 46.7 20.4   644 – Palomar Mountain/NEAT MPS 43943
2001 07 24.46115 00 14 13.35 +05 26 50.3 20.5   644 – Palomar Mountain/NEAT MPS 43943
2001 07 24.47125 00 14 13.68 +05 26 54.4 20.4   644 – Palomar Mountain/NEAT MPS 43943
2001 09 16.39034 23 59 58.13 +06 15 08.4 19.5   704 – Lincoln Laboratory ETS, New Mexico MPS 36675
2001 09 16.40469 23 59 57.30 +06 15 04.4 19.7   704 – Lincoln Laboratory ETS, New Mexico MPS 36675
2001 09 16.41922 23 59 56.49 +06 15 00.2 19.2   704 – Lincoln Laboratory ETS, New Mexico MPS 36675
2001 09 20.26927 23 56 34.58 +05 56 26.8 19.4   704 – Lincoln Laboratory ETS, New Mexico MPS 36675
2001 09 20.28361 23 56 33.68 +05 56 22.2 19.3   704 – Lincoln Laboratory ETS, New Mexico MPS 36675
2001 09 20.29953 23 56 32.83 +05 56 18.1 19.8   704 – Lincoln Laboratory ETS, New Mexico MPS 36675
2001 09 20.31370 23 56 32.02 +05 56 13.8 19.8   704 – Lincoln Laboratory ETS, New Mexico MPS 36675
2001 09 21.31838 23 55 39.40 +05 51 07.6 19.5   644 – Palomar Mountain/NEAT MPS 36675
2001 09 21.33985 23 55 38.20 +05 51 00.3 19.1   644 – Palomar Mountain/NEAT MPS 36675
2001 09 21.36125 23 55 37.02 +05 50 54.2 19.1   644 – Palomar Mountain/NEAT MPS 36675
2001 09 23.25203 23 53 58.50 +05 41 06.1 19.3   704 – Lincoln Laboratory ETS, New Mexico MPS 43943
2001 09 23.26715 23 53 57.73 +05 41 01.1 19.6   704 – Lincoln Laboratory ETS, New Mexico MPS 43943
2001 09 23.28135 23 53 56.90 +05 40 57.2 19.1   704 – Lincoln Laboratory ETS, New Mexico MPS 43943
2001 09 23.29680 23 53 56.10 +05 40 52.4 19.0   704 – Lincoln Laboratory ETS, New Mexico MPS 43943
2005 07 05.37993 23 16 45.61 -01 59 22.3 20.7 V 291 – LPL/Spacewatch II MPS 140998
2005 07 05.39033 23 16 46.07 -01 59 17.4 20.7 V 291 – LPL/Spacewatch II MPS 140998
2005 07 05.40296 23 16 46.62 -01 59 11.6 20.8 V 291 – LPL/Spacewatch II MPS 140998
2005 07 31.39036 23 26 05.96 +00 25 41.7 21.1   644 – Palomar Mountain/NEAT MPS 140998
2005 07 31.40185 23 26 05.87 +00 25 43.7 20.7   644 – Palomar Mountain/NEAT MPS 140998
2005 07 31.41374 23 26 05.81 +00 25 45.9 20.7   644 – Palomar Mountain/NEAT MPS 140998
2005 08 27.36874 23 13 41.63 +00 27 56.8 19.3   644 – Palomar Mountain/NEAT MPS 140105
2005 08 27.39434 23 13 40.36 +00 27 52.8 19.1   644 – Palomar Mountain/NEAT MPS 140105
2005 08 27.42037 23 13 39.08 +00 27 48.6 19.1   644 – Palomar Mountain/NEAT MPS 140105
2005 08 31.23936 23 10 36.63 +00 16 35.8 19.3 V 691 – Steward Observatory, Kitt Peak-Spacewatch MPS 140105
2005 08 31.25662 23 10 35.73 +00 16 32.4 19.3 V 691 – Steward Observatory, Kitt Peak-Spacewatch MPS 140105
2005 08 31.27397 23 10 34.82 +00 16 29.0 19.7 V 691 – Steward Observatory, Kitt Peak-Spacewatch MPS 140105
2005 09 06.19682 23 05 38.25 -00 04 48.3 18.6 R 699 – Lowell Observatory-LONEOS MPS 140998
2005 09 06.21856 23 05 37.11 -00 04 52.0   699 – Lowell Observatory-LONEOS MPS 140998
2005 09 06.24031 23 05 35.99 -00 04 57.2   699 – Lowell Observatory-LONEOS MPS 140998
2005 09 06.24393 23 05 35.73 -00 04 57.3 18.3   704 – Lincoln Laboratory ETS, New Mexico MPS 140998
2005 09 06.25511 23 05 35.14 -00 05 00.2 18.8   704 – Lincoln Laboratory ETS, New Mexico MPS 140998
2005 09 06.26205 23 05 34.80 -00 05 02.2   699 – Lowell Observatory-LONEOS MPS 140998
2005 09 06.28866 23 05 33.33 -00 05 08.7 18.8   704 – Lincoln Laboratory ETS, New Mexico MPS 140998
2005 09 09.279577 23 03 02.920 -00 17 11.40 19.62 V 645 – Apache Point-Sloan Digital Sky Survey MPS 390304
2005 09 09.283049 23 03 02.736 -00 17 12.13 20.42   645 – Apache Point-Sloan Digital Sky Survey MPS 390304
2005 09 13.23816 22 59 48.98 -00 33 52.9 19.5 V 691 – Steward Observatory, Kitt Peak-Spacewatch MPS 141629
2005 09 13.240527 22 59 48.801 -00 33 53.76 19.50 V 645 – Apache Point-Sloan Digital Sky Survey MPS 390304
2005 09 13.243999 22 59 48.624 -00 33 54.67 20.23   645 – Apache Point-Sloan Digital Sky Survey MPS 390304
2005 09 13.25559 22 59 48.09 -00 33 57.3 19.8 V 691 – Steward Observatory, Kitt Peak-Spacewatch MPS 141629
2005 09 13.27303 22 59 47.18 -00 34 02.4 19.4 V 691 – Steward Observatory, Kitt Peak-Spacewatch MPS 141629
2005 09 22.22527 22 53 14.61 -01 12 13.4 19.7 R 644 – Palomar Mountain/NEAT MPS 143596
2005 09 22.24864 22 53 13.64 -01 12 18.9 20.6 R 644 – Palomar Mountain/NEAT MPS 143596
2005 09 22.27058 22 53 12.72 -01 12 24.7 19.8 R 644 – Palomar Mountain/NEAT MPS 143596
2005 09 24.23919 22 51 58.82 -01 20 27.3 19.3 V 703 – Catalina Sky Survey MPS 142541
2005 09 24.24571 22 51 58.64 -01 20 27.8 19.3 V 703 – Catalina Sky Survey MPS 142541
2005 09 24.25218 22 51 58.32 -01 20 30.5 19.5 V 703 – Catalina Sky Survey MPS 142541
2005 09 24.25868 22 51 58.14 -01 20 31.8 19.5 V 703 – Catalina Sky Survey MPS 142541
2005 09 27.11735 22 50 20.91 -01 31 44.1 20.1 V 691 – Steward Observatory, Kitt Peak-Spacewatch MPS 142541
2005 09 27.13289 22 50 20.35 -01 31 47.9 19.8 V 691 – Steward Observatory, Kitt Peak-Spacewatch MPS 142541
2005 09 27.14843 22 50 19.84 -01 31 51.1 19.7 V 691 – Steward Observatory, Kitt Peak-Spacewatch MPS 142541
2005 09 28.18157 22 49 47.64 -01 35 44.5 19.8 R 644 – Palomar Mountain/NEAT MPS 142541
2005 09 28.20245 22 49 46.97 -01 35 49.2 19.4 R 644 – Palomar Mountain/NEAT MPS 142541
2005 09 28.22401 22 49 46.24 -01 35 53.8 19.4 R 644 – Palomar Mountain/NEAT MPS 142541
2005 09 29.26130 22 49 15.62 -01 39 41.9 19.8 V 291 – LPL/Spacewatch II MPS 142541
2005 09 29.26546 22 49 15.51 -01 39 42.6 19.7 V 291 – LPL/Spacewatch II MPS 142541
2005 09 29.27756 22 49 15.16 -01 39 45.1 19.9 V 291 – LPL/Spacewatch II MPS 142541
2005 09 30.15479 22 48 51.04 -01 42 52.9 19.7 V 703 – Catalina Sky Survey MPS 143596
2005 09 30.16130 22 48 50.83 -01 42 55.8 19.4 V 703 – Catalina Sky Survey MPS 143596
2005 09 30.16779 22 48 50.76 -01 42 54.4 20.2 V 703 – Catalina Sky Survey MPS 143596
2005 09 30.17433 22 48 50.47 -01 42 57.2 19.9 V 703 – Catalina Sky Survey MPS 143596
2005 10 01.20211 22 48 23.69 -01 46 31.3 19.8 R 699 – Lowell Observatory-LONEOS MPS 143596
2005 10 01.22411 22 48 23.00 -01 46 36.4   699 – Lowell Observatory-LONEOS MPS 143596
2005 10 01.24615 22 48 22.43 -01 46 40.7   699 – Lowell Observatory-LONEOS MPS 143596
2005 10 01.26821 22 48 21.80 -01 46 42.4   699 – Lowell Observatory-LONEOS MPS 143596
2008 02 13.43339 11 41 23.04 -02 04 28.8 21.4 V 691 – Steward Observatory, Kitt Peak-Spacewatch MPS 286847
2008 02 13.45709 11 41 22.18 -02 04 25.1 21.0 V 691 – Steward Observatory, Kitt Peak-Spacewatch MPS 286847
2008 02 13.47475 11 41 21.50 -02 04 22.8 21.4 V 691 – Steward Observatory, Kitt Peak-Spacewatch MPS 286847
2009 06 24.40432 22 25 17.86 -08 17 10.2 20.4 V G96 – Mt. Lemmon Survey MPS 288996
2009 06 24.42359 22 25 18.62 -08 17 02.0 20.3 V G96 – Mt. Lemmon Survey MPS 288996
2009 06 24.43324 22 25 19.05 -08 16 57.8 20.3 V G96 – Mt. Lemmon Survey MPS 288996
2009 08 12.98029 22 22 56.45 -05 47 58.0 18.8 V J75 – OAM Observatory, La Sagra MPS 291454
2009 08 12.99264 22 22 55.85 -05 47 58.8 18.4 V J75 – OAM Observatory, La Sagra MPS 291454
2009 08 13.00502 22 22 55.30 -05 48 00.3 19.0 V J75 – OAM Observatory, La Sagra MPS 291454
2009 08 14.97872 22 21 26.15 -05 51 02.0 19.6 V J75 – OAM Observatory, La Sagra MPS 291666
2009 08 14.99103 22 21 25.59 -05 51 02.9 19.2 V J75 – OAM Observatory, La Sagra MPS 291666
2009 08 15.00361 22 21 24.91 -05 51 04.4 19.4 V J75 – OAM Observatory, La Sagra MPS 291666
2009 08 15.32512 22 21 10.00 -05 51 36.1 19.4 V 703 – Catalina Sky Survey MPS 291666
2009 08 15.33238 22 21 09.61 -05 51 37.5 19.5 V 703 – Catalina Sky Survey MPS 291666
2009 08 15.33962 22 21 09.18 -05 51 37.8 19.6 V 703 – Catalina Sky Survey MPS 291666
2009 08 15.34685 22 21 08.82 -05 51 38.0 19.4 V 703 – Catalina Sky Survey MPS 291666
2009 08 16.20895 22 20 29.11 -05 53 10.5 19.5 V 691 – Steward Observatory, Kitt Peak-Spacewatch MPS 291666
2009 08 16.22658 22 20 28.25 -05 53 12.5 19.3 V 691 – Steward Observatory, Kitt Peak-Spacewatch MPS 291666
2009 08 16.24420 22 20 27.38 -05 53 14.6 19.3 V 691 – Steward Observatory, Kitt Peak-Spacewatch MPS 291666
2009 08 27.25212 22 11 29.90 -06 19 35.6 19.3 V 703 – Catalina Sky Survey MPS 294897
2009 08 27.26040 22 11 29.43 -06 19 37.4 19.1 V 703 – Catalina Sky Survey MPS 294897
